Home   Weather   Winamac   Past weeks

Flag for USA Past Weather in Winamac, Indiana, USA — Yesterday and Last 2 Weeks

Now
68 °F

Sunny.


Feels Like: 68 °F
Forecast: 52 / 68 °F
Wind: 20 mph from West

Location: Porter County Municipal Airport

Current Time: Sep 26, 2016 at 3:15:45 PM

Latest Report: Sep 26, 2016 at 1:56 PM


Visibility: 10 mi

Pressure: 29.98 "Hg

Humidity: 35%

Dew Point: 39 °F

Location of WinamacLocation

Past Weather in Winamac — Graph

°F

Winamac Temperature Yesterday

Maximum temperature yesterday: 86 °F (at 3:56 PM)
Minimum temperature yesterday: 58 °F (at 6:56 AM)
Average temperature yesterday: 70 °F

High & Low Weather Summary for the Past Weeks

 TemperatureHumidityPressure
High86 °F (Sep 19, 4:56 PM)100% (Sep 19, 5:56 AM)30.27 "Hg (Sep 19, 5:56 AM)
Low51 °F (Sep 12, 6:56 AM)30% (Sep 19, 4:56 PM)29.90 "Hg (Sep 17, 4:56 PM)
Average69 °F74%30.08 "Hg
* Reported Sep 11 1:56 PM — Sep 26 1:56 PM, Winamac, Weather by CustomWeather, © 2016

Note: Actual official high and low records may vary slightly from our data, if they occured in-between our weather recording intervals... More about our weather records

Advertising

Winamac Weather History for the Previous 24 Hours

Scroll right to see more
 ConditionsComfort  
Time TempWeatherWind HumidityBarometerVisibility
1:56 PM
Mon, Sep 26
68 °FSunny.20 mph35%29.98 "Hg10 mi
12:56 PM67 °FSunny.16 mph36%29.99 "Hg10 mi
11:56 AM65 °FSunny.13 mph52%30.01 "Hg10 mi
10:56 AM61 °FSunny.12 mph70%30.01 "Hg10 mi
9:56 AM58 °FSunny.12 mph84%30.02 "Hg10 mi
8:56 AM57 °FSunny.10 mph87%30.01 "Hg10 mi
7:56 AM58 °FSunny.9 mph90%29.99 "Hg10 mi
6:56 AM58 °FPartly sunny.9 mph93%29.98 "Hg10 mi
5:56 AM58 °FLight rain. Overcast.8 mph93%29.97 "Hg10 mi
4:56 AM59 °FLight rain. Overcast.10 mph90%29.98 "Hg10 mi
3:56 AM64 °FLight rain. Overcast.10 mph65%29.96 "Hg10 mi
2:56 AM66 °FOvercast.8 mph63%29.95 "Hg10 mi
1:56 AM67 °FMostly cloudy.10 mph68%29.94 "Hg10 mi
12:56 AM70 °FPassing clouds.14 mph81%29.93 "Hg10 mi
11:56 PM
Sun, Sep 25
71 °FPassing clouds.9 mph87%29.93 "Hg10 mi
10:56 PM72 °FPassing clouds.17 mph84%29.93 "Hg10 mi
9:56 PM71 °FClear.5 mph90%29.93 "Hg10 mi
8:56 PM72 °FMostly cloudy.No wind91%29.93 "Hg10 mi
7:56 PM74 °FLight rain. Partly cloudy.8 mph85%29.94 "Hg10 mi
6:56 PM74 °FPassing clouds.5 mph88%29.92 "Hg10 mi
5:56 PM75 °FThunderstorms. Broken clouds.3 mph79%29.94 "Hg10 mi
4:56 PM84 °FScattered clouds.9 mph51%29.94 "Hg10 mi
3:56 PM86 °FSunny.9 mph48%29.97 "Hg10 mi
Weather by CustomWeather, © 2016

See weather overviewHow to use our weather pages